EN

Hourly Weather Nicosia

Today, 4 August, Wednesday

Time Temperature Precipitation Wind Pressure Humidity
00:00 +34°C° 0 mm 6 mps 740 mmHg 22%
01:00 +33°C° 0 mm 5 mps 740 mmHg 23%
02:00 +33°C° 0 mm 4 mps 740 mmHg 23%
03:00 +33°C° 0 mm 4 mps 741 mmHg 23%
04:00 +33°C° 0 mm 3 mps 741 mmHg 24%
05:00 +31°C° 0 mm 3 mps 741 mmHg 24%
06:00 +35°C° 0 mm 3 mps 741 mmHg 22%
07:00 +37°C° 0 mm 3 mps 741 mmHg 19%
08:00 +39°C° 0 mm 3 mps 742 mmHg 17%
09:00 +42°C° 0 mm 3 mps 742 mmHg 16%
10:00 +42°C° 0 mm 2 mps 742 mmHg 16%
11:00 +43°C° 0 mm 2 mps 742 mmHg 15%
12:00 +44°C° 0 mm 3 mps 741 mmHg 17%
13:00 +44°C° 0 mm 3 mps 741 mmHg 18%
14:00 +44°C° 0 mm 3 mps 741 mmHg 20%
15:00 +44°C° 0 mm 4 mps 741 mmHg 18%
16:00 +45°C° 0 mm 5 mps 741 mmHg 16%
17:00 +45°C° 0 mm 6 mps 740 mmHg 15%
18:00 +43°C° 0 mm 7 mps 740 mmHg 15%
19:00 +40°C° 0 mm 7 mps 740 mmHg 16%
20:00 +38°C° 0 mm 8 mps 740 mmHg 17%
21:00 +37°C° 0 mm 8 mps 740 mmHg 17%
22:00 +37°C° 0 mm 8 mps 740 mmHg 18%
23:00 +37°C° 0 mm 8 mps 740 mmHg 18%

Tomorrow, 5 August, Thursday

Time Temperature Precipitation Wind Pressure Humidity
00:00 +35°C° 0 mm 7 mps 740 mmHg 20%
01:00 +34°C° 0 mm 6 mps 740 mmHg 22%
02:00 +33°C° 0 mm 5 mps 740 mmHg 24%
03:00 +33°C° 0 mm 5 mps 740 mmHg 24%
04:00 +33°C° 0 mm 6 mps 740 mmHg 24%
05:00 +33°C° 0 mm 6 mps 740 mmHg 24%
06:00 +35°C° 0 mm 5 mps 740 mmHg 22%
07:00 +37°C° 0 mm 5 mps 740 mmHg 20%
08:00 +41°C° 0 mm 5 mps 741 mmHg 18%
09:00 +41°C° 0 mm 4 mps 741 mmHg 20%
10:00 +42°C° 0 mm 3 mps 740 mmHg 22%
11:00 +42°C° 0 mm 2 mps 740 mmHg 24%
12:00 +41°C° 0 mm 2 mps 740 mmHg 29%
13:00 +40°C° 0 mm 2 mps 740 mmHg 34%
14:00 +40°C° 0 mm 2 mps 740 mmHg 39%
15:00 +39°C° 0 mm 3 mps 739 mmHg 37%
16:00 +40°C° 0 mm 4 mps 739 mmHg 36%
17:00 +38°C° 0 mm 4 mps 739 mmHg 34%
18:00 +37°C° 0 mm 5 mps 739 mmHg 37%
19:00 +35°C° 0 mm 5 mps 739 mmHg 41%
20:00 +34°C° 0 mm 5 mps 739 mmHg 44%
21:00 +34°C° 0 mm 5 mps 739 mmHg 41%
22:00 +34°C° 0 mm 5 mps 739 mmHg 37%
23:00 +34°C° 0 mm 5 mps 738 mmHg 34%

Day after tomorrow, 6 August, Friday

Time Temperature Precipitation Wind Pressure Humidity
00:00 +33°C° 0 mm 4 mps 738 mmHg 38%
01:00 +32°C° 0 mm 4 mps 738 mmHg 41%
02:00 +30°C° 0 mm 3 mps 738 mmHg 45%
03:00 +30°C° 0 mm 3 mps 738 mmHg 43%
04:00 +29°C° 0 mm 3 mps 738 mmHg 40%
05:00 +29°C° 0 mm 4 mps 739 mmHg 37%
06:00 +31°C° 0 mm 3 mps 739 mmHg 34%
07:00 +35°C° 0 mm 2 mps 739 mmHg 31%
08:00 +38°C° 0 mm 2 mps 739 mmHg 28%
09:00 +38°C° 0 mm 2 mps 739 mmHg 33%
10:00 +37°C° 0 mm 1 mps 739 mmHg 38%
11:00 +37°C° 0 mm 1 mps 739 mmHg 43%
12:00 +38°C° 0 mm 2 mps 739 mmHg 41%
13:00 +39°C° 0 mm 2 mps 738 mmHg 39%
14:00 +39°C° 0 mm 3 mps 738 mmHg 37%
15:00 +36°C° 0.1 mm 3 mps 738 mmHg 41%
16:00 +34°C° 0.1 mm 3 mps 738 mmHg 46%
17:00 +31°C° 0.1 mm 3 mps 738 mmHg 51%
18:00 +31°C° 0 mm 3 mps 738 mmHg 47%
19:00 +32°C° 0 mm 4 mps 738 mmHg 44%
20:00 +32°C° 0 mm 5 mps 738 mmHg 41%
21:00 +32°C° 0 mm 4 mps 738 mmHg 41%
22:00 +30°C° 0 mm 3 mps 738 mmHg 41%
23:00 +29°C° 0 mm 2 mps 738 mmHg 41%

7 August, Saturday

Time Temperature Precipitation Wind Pressure Humidity
00:00 +29°C° 0 mm 2 mps 738 mmHg 43%
01:00 +28°C° 0 mm 1 mps 738 mmHg 45%
02:00 +25°C° 0 mm 0 mps 738 mmHg 48%
03:00 +27°C° 0 mm 1 mps 738 mmHg 50%
04:00 +27°C° 0 mm 1 mps 738 mmHg 53%
05:00 +26°C° 0 mm 1 mps 738 mmHg 56%
06:00 +29°C° 0 mm 2 mps 738 mmHg 51%
07:00 +31°C° 0 mm 3 mps 738 mmHg 47%
08:00 +34°C° 0 mm 4 mps 739 mmHg 42%
09:00 +36°C° 0 mm 4 mps 739 mmHg 41%
10:00 +37°C° 0 mm 4 mps 739 mmHg 39%
11:00 +38°C° 0 mm 4 mps 739 mmHg 38%
12:00 +38°C° 0 mm 4 mps 739 mmHg 36%
13:00 +38°C° 0 mm 3 mps 738 mmHg 35%
14:00 +38°C° 0 mm 2 mps 738 mmHg 33%
15:00 +37°C° 0 mm 3 mps 738 mmHg 35%
16:00 +36°C° 0 mm 4 mps 738 mmHg 36%
17:00 +35°C° 0 mm 5 mps 738 mmHg 37%
18:00 +33°C° 0 mm 5 mps 739 mmHg 47%
19:00 +30°C° 0 mm 5 mps 739 mmHg 57%
20:00 +28°C° 0 mm 5 mps 739 mmHg 66%
21:00 +28°C° 0 mm 4 mps 740 mmHg 67%
22:00 +27°C° 0 mm 3 mps 740 mmHg 68%
23:00 +27°C° 0 mm 2 mps 740 mmHg 69%

8 August, Sunday

Time Temperature Precipitation Wind Pressure Humidity
00:00 +27°C° 0 mm 2 mps 740 mmHg 65%
01:00 +27°C° 0 mm 2 mps 740 mmHg 62%
02:00 +27°C° 0 mm 2 mps 740 mmHg 59%
03:00 +27°C° 0.1 mm 2 mps 740 mmHg 58%
04:00 +27°C° 0.1 mm 2 mps 740 mmHg 57%
05:00 +27°C° 0.1 mm 2 mps 740 mmHg 56%
06:00 +29°C° 0.1 mm 2 mps 741 mmHg 48%
07:00 +31°C° 0.1 mm 2 mps 741 mmHg 41%
08:00 +34°C° 0.1 mm 1 mps 742 mmHg 33%
09:00 +35°C° 0 mm 2 mps 742 mmHg 36%
10:00 +36°C° 0 mm 2 mps 742 mmHg 39%
11:00 +37°C° 0 mm 2 mps 742 mmHg 42%
12:00 +36°C° 0 mm 3 mps 742 mmHg 45%
13:00 +36°C° 0 mm 3 mps 742 mmHg 49%
14:00 +36°C° 0 mm 3 mps 742 mmHg 52%
15:00 +35°C° 0 mm 4 mps 742 mmHg 55%
16:00 +35°C° 0 mm 4 mps 742 mmHg 57%
17:00 +34°C° 0 mm 4 mps 742 mmHg 60%
18:00 +33°C° 0 mm 4 mps 742 mmHg 63%
19:00 +32°C° 0 mm 5 mps 742 mmHg 66%
20:00 +30°C° 0 mm 5 mps 742 mmHg 69%
21:00 +30°C° 0 mm 5 mps 742 mmHg 63%
22:00 +30°C° 0 mm 5 mps 742 mmHg 57%
23:00 +30°C° 0 mm 5 mps 742 mmHg 51%

9 August, Monday

Time Temperature Precipitation Wind Pressure Humidity
00:00 +30°C° 0 mm 5 mps 742 mmHg 47%
01:00 +30°C° 0 mm 5 mps 742 mmHg 43%
02:00 +30°C° 0 mm 5 mps 742 mmHg 39%
03:00 +30°C° 0 mm 5 mps 742 mmHg 41%
04:00 +29°C° 0 mm 4 mps 742 mmHg 42%
05:00 +29°C° 0 mm 4 mps 742 mmHg 44%
06:00 +31°C° 0 mm 3 mps 742 mmHg 40%
07:00 +34°C° 0 mm 3 mps 742 mmHg 35%
08:00 +36°C° 0 mm 3 mps 742 mmHg 31%
09:00 +37°C° 0 mm 3 mps 743 mmHg 29%
10:00 +38°C° 0 mm 4 mps 743 mmHg 27%
11:00 +40°C° 0 mm 4 mps 743 mmHg 25%
12:00 +41°C° 0 mm 5 mps 742 mmHg 27%
13:00 +41°C° 0 mm 5 mps 742 mmHg 28%
14:00 +41°C° 0 mm 5 mps 742 mmHg 30%
15:00 +40°C° 0 mm 6 mps 742 mmHg 31%
16:00 +40°C° 0 mm 6 mps 742 mmHg 32%
17:00 +39°C° 0 mm 7 mps 741 mmHg 32%
18:00 +38°C° 0 mm 7 mps 741 mmHg 33%
19:00 +36°C° 0 mm 7 mps 741 mmHg 34%
20:00 +34°C° 0 mm 7 mps 741 mmHg 35%
21:00 +34°C° 0 mm 7 mps 741 mmHg 33%
22:00 +34°C° 0 mm 8 mps 741 mmHg 31%
23:00 +34°C° 0 mm 8 mps 741 mmHg 30%
Show more

We Need Your Consent

Meteoprog and our Service Providers may store and access personal data such as cookies, device identifiers or other similar technologies on your device and process such data to personalise content and ads, as well as provide social media features and to analyse the traffic.

  • Store and/or access information on your device

    Cookies, device identifiers or other information can be stored or accessed on your device for the purposes indicated above.

  • Personalised ads and content, ad and content measurement, audience insights, and products development

    Ads and content can be personalised based on a profile. More data can be added to better personalise ads and content. Ad and content performance can be measured. Insights about the audience who saw the ads and content can be derived. Such data can be used to develop or improve user’s experience, systems and software.

By clicking ‘I Agree’ you will allow the use of indicated cookies, device identifiers, web beacons or other similar technologies. Your settings can be changed in the browser on your device.

For certain purposes, legitimate interests may be relied on, rather than consent. You can read more about this in our Privacy and Cookie Policy.